Volver al catálogo

STARLINK-4574

ActivoComunicacionesVLEO
NORAD 53733·PAYLOAD·🇺🇸 United States

Lanzado Sep 5, 2022 desde Cape Canaveral Space Force Station

Loading…

Próximos Pases (próximas 24 horas)

TLE

ActualizadoSource: CelesTrak SupGP

Época: Sep 14, 2026, 21:25 UTC

1 53733C 22107AK  26257.89284722 -.00021156  00000+0 -64204-3 0  2579
2 53733  53.1576 110.0037 0001262  82.3673  84.0201 15.33554744    19

Sigue STARLINK-4574 en tiempo real con AllMySat

Download on the App Store